| time (UTC) | temp F | wind direction | speed MPH | gust MPH | rain 1hr in | rain 24hr in | rain mn in | humidity % | barometer mb |
| 20260504150930 | 140 | 187 | 13.0 | 16.0 | 0.00 | 0.00 | 0.00 | 1012.3 | |
| 20260504150426 | 140 | 194 | 7.0 | 9.0 | 0.00 | 0.00 | 0.00 | 1012.3 | |
| 20260504140847 | 140 | 187 | 13.0 | 16.0 | 0.00 | 0.00 | 0.00 | 1012.8 | |
| 20260504140343 | 140 | 168 | 9.0 | 10.0 | 0.00 | 0.00 | 0.00 | 1012.6 | |
| 20260504130812 | 140 | 169 | 8.0 | 11.0 | 0.00 | 0.00 | 0.00 | 1012.9 | |
| 20260504130308 | 140 | 136 | 5.0 | 6.0 | 0.00 | 0.00 | 0.00 | 1012.8 | |
| 20260504120232 | 140 | 156 | 3.0 | 3.0 | 0.00 | 0.00 | 0.00 | 1012.5 | |
| 20260504110659 | 140 | 160 | 5.0 | 6.0 | 0.00 | 0.00 | 0.00 | 1012.4 | |
| 20260504110155 | 140 | 162 | 4.0 | 5.0 | 0.00 | 0.00 | 0.00 | 1012.5 | |
| 20260504100119 | 140 | 167 | 7.0 | 8.0 | 0.00 | 0.00 | 0.00 | 1012.9 | |
| 20260504081512 | 140 | 147 | 0.0 | 0.0 | 0.00 | 0.00 | 0.00 | 1013.6 | |
| 20260504081008 | 140 | 165 | 1.0 | 1.0 | 0.00 | 0.00 | 0.00 | 1013.6 | |
| 20260504080504 | 140 | 161 | 2.0 | 2.0 | 0.00 | 0.00 | 0.00 | 1013.7 | |
| 20260504050305 | 140 | 178 | 4.0 | 6.0 | 0.00 | 0.00 | 0.00 | 1015.4 | |
| 20260504045802 | 140 | 183 | 0.0 | 0.0 | 0.00 | 0.00 | 0.00 | 1015.7 | |
| 20260504045304 | 140 | 152 | 3.0 | 5.0 | 0.00 | 0.00 | 0.00 | 1015.4 | |
| 20260504044800 | 140 | 172 | 5.0 | 6.0 | 0.00 | 0.00 | 0.00 | 1015.7 | |
| 20260504044257 | 140 | 133 | 4.0 | 6.0 | 0.00 | 0.00 | 0.00 | 1015.6 | |
| 20260504043755 | 140 | 190 | 3.0 | 3.0 | 0.00 | 0.00 | 0.00 | 1015.6 | |
| 20260504043251 | 140 | 158 | 4.0 | 5.0 | 0.00 | 0.00 | 0.00 | 1015.7 | |
| 20260504042749 | 140 | 167 | 2.0 | 2.0 | 0.00 | 0.00 | 0.00 | 1015.6 | |
| 20260504042245 | 140 | 183 | 3.0 | 3.0 | 0.00 | 0.00 | 0.00 | 1015.6 | |
| 20260504041742 | 140 | 170 | 5.0 | 7.0 | 0.00 | 0.00 | 0.00 | 1015.6 | |
| 20260504041238 | 140 | 159 | 4.0 | 5.0 | 0.00 | 0.00 | 0.00 | 1015.7 | |
| 20260504040734 | 140 | 173 | 4.0 | 5.0 | 0.00 | 0.00 | 0.00 | 1015.6 | |
| 20260504040232 | 140 | 155 | 7.0 | 7.0 | 0.00 | 0.00 | 0.00 | 1015.4 | |
| 20260504035728 | 140 | 189 | 5.0 | 7.0 | 0.00 | 0.00 | 0.00 | 1015.7 | |
| 20260504035225 | 140 | 165 | 4.0 | 5.0 | 0.00 | 0.00 | 0.00 | 1015.8 | |
| 20260504034723 | 140 | 180 | 4.0 | 5.0 | 0.00 | 0.00 | 0.00 | 1015.8 | |
| 20260504034220 | 140 | 191 | 3.0 | 5.0 | 0.00 | 0.00 | 0.00 | 1015.7 | |
| 20260504033717 | 140 | 171 | 5.0 | 6.0 | 0.00 | 0.00 | 0.00 | 1015.9 | |
| 20260504033214 | 140 | 151 | 3.0 | 3.0 | 0.00 | 0.00 | 0.00 | 1015.7 | |
| 20260504032711 | 140 | 146 | 2.0 | 5.0 | 0.00 | 0.00 | 0.00 | 1015.7 | |
| 20260504032209 | 140 | 150 | 4.0 | 5.0 | 0.00 | 0.00 | 0.00 | 1015.6 | |
| 20260504031705 | 140 | 177 | 3.0 | 5.0 | 0.00 | 0.00 | 0.00 | 1015.4 | |
| 20260504031202 | 140 | 178 | 3.0 | 5.0 | 0.00 | 0.00 | 0.00 | 1015.7 | |
| 20260504030658 | 140 | 146 | 4.0 | 5.0 | 0.00 | 0.00 | 0.00 | 1015.4 | |
| 20260504030155 | 140 | 146 | 0.0 | 0.0 | 0.00 | 0.00 | 0.00 | 1015.5 | |
| 20260504025652 | 140 | 169 | 0.0 | 0.0 | 0.00 | 0.00 | 0.00 | 1015.5 | |
| 20260504025148 | 140 | 178 | 0.0 | 0.0 | 0.00 | 0.00 | 0.00 | 1015.7 | |
| 20260504024646 | 140 | 174 | 0.0 | 0.0 | 0.00 | 0.00 | 0.00 | 1015.7 | |
| 20260504024142 | 140 | 188 | 0.0 | 0.0 | 0.00 | 0.00 | 0.00 | 1015.5 | |
| 20260504023639 | 140 | 176 | 0.0 | 0.0 | 0.00 | 0.00 | 0.00 | 1015.3 | |
| 20260504023135 | 140 | 188 | 0.0 | 0.0 | 0.00 | 0.00 | 0.00 | 1015.0 | |
| 20260504022632 | 140 | 142 | 4.0 | 5.0 | 0.00 | 0.00 | 0.00 | 1015.2 | |
| 20260504022127 | 140 | 176 | 0.0 | 0.0 | 0.00 | 0.00 | 0.00 | 1015.1 | |
| 20260504021626 | 140 | 167 | 0.0 | 0.0 | 0.00 | 0.00 | 0.00 | 1015.0 | |
| 20260504021122 | 140 | 164 | 0.0 | 0.0 | 0.00 | 0.00 | 0.00 | 1015.1 | |
| 20260504020619 | 140 | 168 | 3.0 | 3.0 | 0.00 | 0.00 | 0.00 | 1015.1 | |
| 20260504020115 | 140 | 155 | 0.0 | 0.0 | 0.00 | 0.00 | 0.00 | 1015.1 | |
| 20260504015612 | 140 | 173 | 2.0 | 3.0 | 0.00 | 0.00 | 0.00 | 1015.0 | |
| 20260504015108 | 140 | 145 | 4.0 | 5.0 | 0.00 | 0.00 | 0.00 | 1014.8 | |
| 20260504014604 | 140 | 186 | 0.0 | 1.0 | 0.00 | 0.00 | 0.00 | 1015.0 | |
| 20260504014101 | 140 | 184 | 2.0 | 2.0 | 0.00 | 0.00 | 0.00 | 1015.0 | |
| 20260504013559 | 140 | 170 | 3.0 | 3.0 | 0.00 | 0.00 | 0.00 | 1015.0 | |
| 20260504013056 | 140 | 158 | 3.0 | 5.0 | 0.00 | 0.00 | 0.00 | 1015.0 | |
| 20260504012553 | 140 | 179 | 3.0 | 5.0 | 0.00 | 0.00 | 0.00 | 1014.9 | |
| 20260504012051 | 140 | 165 | 3.0 | 3.0 | 0.00 | 0.00 | 0.00 | 1014.7 | |
| 20260504011547 | 140 | 191 | 0.0 | 0.0 | 0.00 | 0.00 | 0.00 | 1014.7 | |
| 20260504011043 | 140 | 183 | 0.0 | 0.0 | 0.00 | 0.00 | 0.00 | 1014.6 | |
| 20260504010539 | 140 | 173 | 0.0 | 0.0 | 0.00 | 0.00 | 0.00 | 1014.5 | |
| 20260504010036 | 140 | 184 | 3.0 | 3.0 | 0.00 | 0.00 | 0.00 | 1014.5 | |
| 20260504005532 | 140 | 190 | 3.0 | 5.0 | 0.00 | 0.00 | 0.00 | 1014.5 | |
| 20260504005030 | 140 | 192 | 4.0 | 5.0 | 0.00 | 0.00 | 0.00 | 1014.7 | |
| 20260504004528 | 140 | 180 | 3.0 | 3.0 | 0.00 | 0.00 | 0.00 | 1014.5 | |
| 20260504004024 | 140 | 197 | 4.0 | 5.0 | 0.00 | 0.00 | 0.00 | 1014.5 | |
| 20260504003520 | 140 | 182 | 4.0 | 6.0 | 0.00 | 0.00 | 0.00 | 1014.9 | |
| 20260504003012 | 140 | 185 | 5.0 | 6.0 | 0.00 | 0.00 | 0.00 | 1014.6 | |
| 20260504002508 | 140 | 170 | 4.0 | 6.0 | 0.00 | 0.00 | 0.00 | 1014.6 | |
| 20260504002006 | 140 | 168 | 9.0 | 10.0 | 0.00 | 0.00 | 0.00 | 1014.8 | |
| 20260504001504 | 140 | 189 | 8.0 | 10.0 | 0.00 | 0.00 | 0.00 | 1014.6 | |
| 20260504001000 | 140 | 193 | 5.0 | 6.0 | 0.00 | 0.00 | 0.00 | 1014.8 | |
| 20260504000457 | 140 | 166 | 6.0 | 9.0 | 0.00 | 0.00 | 0.00 | 1014.9 | |
| 20260503235954 | 140 | 179 | 6.0 | 8.0 | 0.00 | 0.00 | 0.00 | 1014.8 | |
| 20260503235452 | 140 | 222 | 5.0 | 7.0 | 0.00 | 0.00 | 0.00 | 1015.0 | |
| 20260503234949 | 140 | 180 | 6.0 | 8.0 | 0.00 | 0.00 | 0.00 | 1015.0 | |
| 20260503234446 | 140 | 203 | 6.0 | 8.0 | 0.00 | 0.00 | 0.00 | 1015.1 | |
| 20260503233945 | 140 | 156 | 4.0 | 5.0 | 0.00 | 0.00 | 0.00 | 1014.8 | |
| 20260503233440 | 140 | 164 | 6.0 | 8.0 | 0.00 | 0.00 | 0.00 | 1015.0 | |
| 20260503232937 | 140 | 162 | 8.0 | 10.0 | 0.00 | 0.00 | 0.00 | 1015.1 | |
| 20260503232434 | 140 | 196 | 3.0 | 5.0 | 0.00 | 0.00 | 0.00 | 1014.8 | |
| 20260503231932 | 140 | 174 | 10.0 | 11.0 | 0.00 | 0.00 | 0.00 | 1014.8 | |
| 20260503231429 | 140 | 188 | 6.0 | 8.0 | 0.00 | 0.00 | 0.00 | 1015.0 | |
| 20260503230926 | 140 | 193 | 10.0 | 13.0 | 0.00 | 0.00 | 0.00 | 1014.8 | |
| 20260503230422 | 140 | 198 | 8.0 | 9.0 | 0.00 | 0.00 | 0.00 | 1015.0 | |
| 20260503225920 | 140 | 137 | 6.0 | 7.0 | 0.00 | 0.00 | 0.00 | 1015.3 | |
| 20260503225416 | 140 | 184 | 7.0 | 8.0 | 0.00 | 0.00 | 0.00 | 1015.2 | |
| 20260503224912 | 140 | 176 | 9.0 | 11.0 | 0.00 | 0.00 | 0.00 | 1015.3 | |
| 20260503224409 | 140 | 189 | 7.0 | 8.0 | 0.00 | 0.00 | 0.00 | 1015.1 | |
| 20260503223907 | 140 | 198 | 8.0 | 9.0 | 0.00 | 0.00 | 0.00 | 1015.4 | |
| 20260503223405 | 140 | 179 | 10.0 | 10.0 | 0.00 | 0.00 | 0.00 | 1015.3 | |
| 20260503222900 | 140 | 167 | 11.0 | 14.0 | 0.00 | 0.00 | 0.00 | 1015.3 | |
| 20260503222359 | 140 | 132 | 11.0 | 13.0 | 0.00 | 0.00 | 0.00 | 1015.3 | |
| 20260503221856 | 140 | 185 | 9.0 | 10.0 | 0.00 | 0.00 | 0.00 | 1015.5 | |
| 20260503221354 | 140 | 164 | 6.0 | 7.0 | 0.00 | 0.00 | 0.00 | 1015.6 | |
| 20260503220850 | 140 | 180 | 6.0 | 10.0 | 0.00 | 0.00 | 0.00 | 1015.6 | |
| 20260503220347 | 140 | 164 | 6.0 | 7.0 | 0.00 | 0.00 | 0.00 | 1015.5 | |
| 20260503215844 | 140 | 213 | 9.0 | 11.0 | 0.00 | 0.00 | 0.00 | 1015.6 | |
| 20260503215341 | 140 | 199 | 7.0 | 8.0 | 0.00 | 0.00 | 0.00 | 1015.8 | |
| 20260503214839 | 140 | 211 | 9.0 | 13.0 | 0.00 | 0.00 | 0.00 | 1015.9 | |
| 20260503214337 | 140 | 186 | 8.0 | 9.0 | 0.00 | 0.00 | 0.00 | 1015.9 | |
| 20260503213834 | 140 | 208 | 7.0 | 9.0 | 0.00 | 0.00 | 0.00 | 1015.9 | |
| 20260503213331 | 140 | 130 | 13.0 | 15.0 | 0.00 | 0.00 | 0.00 | 1016.2 | |
| 20260503212828 | 140 | 212 | 7.0 | 8.0 | 0.00 | 0.00 | 0.00 | 1016.2 | |
| 20260503212326 | 140 | 212 | 6.0 | 8.0 | 0.00 | 0.00 | 0.00 | 1016.3 | |
| 20260503211823 | 140 | 224 | 9.0 | 11.0 | 0.00 | 0.00 | 0.00 | 1016.5 | |
| 20260503211319 | 140 | 167 | 7.0 | 11.0 | 0.00 | 0.00 | 0.00 | 1016.5 | |
| 20260503210819 | 140 | 154 | 7.0 | 8.0 | 0.00 | 0.00 | 0.00 | 1016.4 | |
| 20260503210317 | 140 | 176 | 6.0 | 7.0 | 0.00 | 0.00 | 0.00 | 1016.7 | |
| 20260503205812 | 140 | 220 | 12.0 | 14.0 | 0.00 | 0.00 | 0.00 | 1016.7 | |
| 20260503205309 | 140 | 208 | 11.0 | 15.0 | 0.00 | 0.00 | 0.00 | 1016.9 | |
| 20260503204805 | 140 | 236 | 9.0 | 11.0 | 0.00 | 0.00 | 0.00 | 1016.9 | |
| 20260503204303 | 140 | 165 | 5.0 | 8.0 | 0.00 | 0.00 | 0.00 | 1017.1 | |
| 20260503203800 | 140 | 106 | 9.0 | 9.0 | 0.00 | 0.00 | 0.00 | 1017.1 | |
| 20260503203257 | 140 | 181 | 11.0 | 14.0 | 0.00 | 0.00 | 0.00 | 1017.0 | |
| 20260503202754 | 140 | 195 | 12.0 | 13.0 | 0.00 | 0.00 | 0.00 | 1017.3 | |
| 20260503202252 | 140 | 142 | 7.0 | 9.0 | 0.00 | 0.00 | 0.00 | 1017.5 | |
| 20260503201750 | 140 | 230 | 5.0 | 6.0 | 0.00 | 0.00 | 0.00 | 1017.6 | |
| 20260503201247 | 140 | 144 | 4.0 | 6.0 | 0.00 | 0.00 | 0.00 | 1017.5 | |
| 20260503200744 | 140 | 151 | 11.0 | 14.0 | 0.00 | 0.00 | 0.00 | 1017.8 | |
| 20260503200240 | 140 | 169 | 6.0 | 7.0 | 0.00 | 0.00 | 0.00 | 1017.9 | |
| 20260503195737 | 140 | 173 | 7.0 | 8.0 | 0.00 | 0.00 | 0.00 | 1018.1 | |
| 20260503195234 | 140 | 226 | 7.0 | 8.0 | 0.00 | 0.00 | 0.00 | 1018.1 | |
| 20260503194732 | 140 | 219 | 9.0 | 11.0 | 0.00 | 0.00 | 0.00 | 1018.0 | |
| 20260503194227 | 140 | 115 | 5.0 | 7.0 | 0.00 | 0.00 | 0.00 | 1018.1 | |
| 20260503193723 | 140 | 187 | 4.0 | 5.0 | 0.00 | 0.00 | 0.00 | 1018.3 | |
| 20260503193219 | 140 | 153 | 7.0 | 9.0 | 0.00 | 0.00 | 0.00 | 1018.1 | |
| 20260503192715 | 140 | 145 | 3.0 | 5.0 | 0.00 | 0.00 | 0.00 | 1018.5 | |
| 20260503192211 | 140 | 150 | 8.0 | 10.0 | 0.00 | 0.00 | 0.00 | 1018.4 | |
| 20260503191708 | 140 | 215 | 9.0 | 13.0 | 0.00 | 0.00 | 0.00 | 1018.6 | |
| 20260503191205 | 140 | 195 | 10.0 | 11.0 | 0.00 | 0.00 | 0.00 | 1018.6 | |
| 20260503190701 | 140 | 183 | 5.0 | 7.0 | 0.00 | 0.00 | 0.00 | 1018.7 | |
| 20260503190159 | 140 | 198 | 12.0 | 16.0 | 0.00 | 0.00 | 0.00 | 1018.9 | |
| 20260503185656 | 140 | 232 | 10.0 | 11.0 | 0.00 | 0.00 | 0.00 | 1018.9 | |
| 20260503185150 | 140 | 229 | 10.0 | 14.0 | 0.00 | 0.00 | 0.00 | 1018.9 | |
| 20260503184645 | 140 | 178 | 9.0 | 10.0 | 0.00 | 0.00 | 0.00 | 1019.0 | |
| 20260503184143 | 140 | 196 | 8.0 | 10.0 | 0.00 | 0.00 | 0.00 | 1019.0 | |
| 20260503183638 | 140 | 215 | 8.0 | 10.0 | 0.00 | 0.00 | 0.00 | 1019.1 | |
| 20260503183136 | 140 | 218 | 6.0 | 7.0 | 0.00 | 0.00 | 0.00 | 1019.3 | |
| 20260503182634 | 140 | 195 | 6.0 | 7.0 | 0.00 | 0.00 | 0.00 | 1019.2 | |
| 20260503182132 | 140 | 192 | 7.0 | 10.0 | 0.00 | 0.00 | 0.00 | 1019.4 | |
| 20260503181629 | 140 | 221 | 7.0 | 10.0 | 0.00 | 0.00 | 0.00 | 1019.3 | |
| 20260503181126 | 140 | 199 | 5.0 | 7.0 | 0.00 | 0.00 | 0.00 | 1019.6 | |
| 20260503180623 | 140 | 199 | 7.0 | 9.0 | 0.00 | 0.00 | 0.00 | 1019.4 | |
| 20260503180121 | 140 | 196 | 3.0 | 5.0 | 0.00 | 0.00 | 0.00 | 1019.7 | |
| 20260503175617 | 140 | 212 | 7.0 | 9.0 | 0.00 | 0.00 | 0.00 | 1019.8 | |
| 20260503175114 | 140 | 249 | 9.0 | 11.0 | 0.00 | 0.00 | 0.00 | 1019.8 | |
| 20260503174611 | 140 | 170 | 9.0 | 13.0 | 0.00 | 0.00 | 0.00 | 1020.0 | |
| 20260503174108 | 140 | 240 | 8.0 | 9.0 | 0.00 | 0.00 | 0.00 | 1020.1 | |
| 20260503173603 | 140 | 235 | 7.0 | 10.0 | 0.00 | 0.00 | 0.00 | 1020.1 | |
| 20260503173100 | 140 | 227 | 8.0 | 9.0 | 0.00 | 0.00 | 0.00 | 1020.3 | |
| 20260503172557 | 140 | 174 | 4.0 | 5.0 | 0.00 | 0.00 | 0.00 | 1020.1 | |
| 20260503172054 | 140 | 225 | 9.0 | 10.0 | 0.00 | 0.00 | 0.00 | 1020.5 | |
| 20260503171550 | 140 | 236 | 7.0 | 7.0 | 0.00 | 0.00 | 0.00 | 1020.6 | |
| 20260503171048 | 140 | 230 | 10.0 | 13.0 | 0.00 | 0.00 | 0.00 | 1020.7 | |
| 20260503170544 | 140 | 225 | 9.0 | 11.0 | 0.00 | 0.00 | 0.00 | 1020.8 |